DW4604 Weather Reports


Display with metric or nautical units.
time (UTC)temp
F
wind
direction
speed
MPH
gust
MPH
rain 1hr
in
rain 24hr
in
rain mn
in
humidity
%
barometer
mb
20190617132002 77 29 2.0 8.0 0.00 0.00 0.00 43 1020.1
20190617131502 78 332 1.0 7.0 0.00 0.00 0.00 44 1020.2
20190617131003 77 317 1.0 7.0 0.00 0.00 0.00 44 1020.2
20190617130502 78 350 2.0 7.0 0.00 0.00 0.00 43 1020.3
20190617130003 77 42 2.0 9.0 0.00 0.00 0.00 44 1020.2
20190617125503 77 53 2.0 9.0 0.00 0.00 0.00 45 1020.3
20190617125003 76 57 2.0 8.0 0.00 0.00 0.00 46 1020.4
20190617124502 77 350 2.0 7.0 0.00 0.01 0.00 42 1020.4
20190617124003 77 324 2.0 7.0 0.00 0.01 0.00 42 1020.4
20190617123503 77 352 2.0 7.0 0.00 0.02 0.00 43 1020.5
20190617123003 77 30 2.0 10.0 0.00 0.02 0.00 44 1020.5
20190617122503 76 52 3.0 10.0 0.00 0.06 0.00 45 1020.5
20190617122003 76 61 3.0 7.0 0.00 0.10 0.00 43 1020.5
20190617121502 76 55 1.0 5.0 0.00 0.18 0.00 45 1020.6
20190617121003 76 230 1.0 5.0 0.00 0.18 0.00 46 1020.6
20190617120503 77 236 1.0 3.0 0.00 0.18 0.00 45 1020.6
20190617120003 76 278 1.0 4.0 0.00 0.18 0.00 47 1020.6
20190617115503 76 337 3.0 9.0 0.00 0.18 0.00 45 1020.7
20190617115003 76 7 4.0 9.0 0.00 0.18 0.00 45 1020.7
20190617114503 75 18 4.0 10.0 0.00 0.18 0.00 46 1020.8
20190617114005 75 27 3.0 10.0 0.00 0.18 0.00 47 1020.8
20190617113503 74 50 3.0 7.0 0.00 0.18 0.00 50 1020.7
20190617113004 74 53 4.0 9.0 0.00 0.18 0.00 48 1020.8
20190617112503 74 58 4.0 9.0 0.00 0.18 0.00 48 1020.8
20190617112003 75 52 3.0 8.0 0.00 0.18 0.00 48 1020.8
20190617111503 74 13 3.0 7.0 0.00 0.18 0.00 49 1020.9
20190617111003 74 5 3.0 10.0 0.00 0.18 0.00 48 1021.0
20190617110503 75 10 1.0 10.0 0.00 0.18 0.00 51 1020.9
20190617110003 74 40 2.0 10.0 0.00 0.18 0.00 52 1020.8
20190617105503 73 38 4.0 11.0 0.00 0.18 0.00 52 1021.0
20190617105003 73 38 5.0 11.0 0.00 0.18 0.00 52 1021.0
20190617104503 73 46 6.0 11.0 0.00 0.18 0.00 50 1021.1
20190617104003 74 39 5.0 11.0 0.00 0.18 0.00 48 1021.0
20190617103503 74 8 3.0 8.0 0.00 0.18 0.00 50 1021.0
20190617103003 74 36 3.0 9.0 0.00 0.18 0.00 50 1021.0
20190617102503 74 41 3.0 9.0 0.00 0.18 0.00 50 1021.1
20190617102004 74 36 2.0 7.0 0.00 0.18 0.00 50 1021.1
20190617101503 73 18 3.0 7.0 0.00 0.18 0.00 50 1021.2
20190617101004 73 342 2.0 8.0 0.00 0.18 0.00 50 1021.2
20190617100503 74 349 2.0 8.0 0.00 0.18 0.00 50 1021.1
20190617100003 74 341 3.0 8.0 0.00 0.18 0.00 51 1021.2
20190617095503 73 333 3.0 7.0 0.00 0.18 0.00 51 1021.2
20190617095004 73 336 3.0 8.0 0.00 0.18 0.00 52 1021.2
20190617094504 73 347 3.0 11.0 0.00 0.18 0.00 52 1021.1
20190617094004 72 345 4.0 11.0 0.00 0.18 0.00 53 1021.1
20190617093503 72 6 5.0 10.0 0.00 0.18 0.00 53 1021.1
20190617093003 72 36 4.0 10.0 0.00 0.18 0.00 53 1021.1
20190617092503 72 21 3.0 11.0 0.00 0.18 0.00 51 1021.3
20190617092003 72 353 4.0 11.0 0.00 0.18 0.00 51 1021.3
20190617091503 72 347 5.0 11.0 0.00 0.18 0.00 54 1021.3
20190617091004 72 350 3.0 10.0 0.00 0.18 0.00 52 1021.3
20190617090503 72 29 3.0 7.0 0.00 0.18 0.00 55 1021.2
20190617090004 71 49 3.0 10.0 0.00 0.18 0.00 56 1021.2
20190617085503 71 42 3.0 10.0 0.00 0.18 0.00 54 1021.2
20190617085003 71 45 2.0 6.0 0.00 0.18 0.00 55 1021.2
20190617084503 71 30 3.0 9.0 0.00 0.18 0.00 54 1021.2
20190617084005 71 13 3.0 9.0 0.00 0.18 0.00 55 1021.2
20190617083504 71 24 3.0 8.0 0.00 0.18 0.00 57 1021.1
20190617083004 71 31 3.0 8.0 0.00 0.18 0.00 59 1021.1
20190617082503 71 17 3.0 7.0 0.00 0.18 0.00 57 1021.2
20190617082003 71 346 3.0 9.0 0.00 0.18 0.00 58 1021.2
20190617081503 71 344 3.0 9.0 0.00 0.18 0.00 58 1021.1
20190617081004 71 336 3.0 8.0 0.00 0.18 0.00 57 1021.1
20190617080504 71 336 4.0 9.0 0.00 0.18 0.00 59 1021.1
20190617080004 70 345 5.0 9.0 0.00 0.18 0.00 60 1021.2
20190617075504 70 345 3.0 9.0 0.00 0.18 0.00 60 1021.2
20190617075004 70 6 3.0 8.0 0.00 0.18 0.00 62 1021.3
20190617074504 69 40 3.0 8.0 0.00 0.18 0.00 63 1021.3
20190617074004 69 52 2.0 7.0 0.00 0.18 0.00 65 1021.2
20190617073503 69 36 2.0 7.0 0.00 0.18 0.00 67 1021.3
20190617073005 69 49 2.0 6.0 0.00 0.18 0.00 67 1021.3
20190617072504 69 25 2.0 7.0 0.00 0.18 0.00 67 1021.4
20190617072004 69 349 2.0 7.0 0.00 0.18 0.00 66 1021.3
20190617071503 69 348 2.0 9.0 0.00 0.18 0.00 67 1021.3
20190617071004 69 1 3.0 9.0 0.00 0.18 0.00 65 1021.3
20190617070504 69 7 3.0 8.0 0.00 0.18 0.00 65 1021.3
20190617070004 70 5 3.0 9.0 0.00 0.18 0.00 64 1021.3
20190617065504 69 21 4.0 10.0 0.00 0.18 0.00 64 1021.3
20190617065004 69 37 4.0 10.0 0.00 0.18 0.00 65 1021.2
20190617064504 69 48 2.0 8.0 0.00 0.18 0.00 63 1021.2
20190617064004 69 37 2.0 7.0 0.00 0.18 0.00 63 1021.1
20190617063505 69 34 3.0 9.0 0.00 0.18 0.00 65 1021.0
20190617063004 68 34 4.0 12.0 0.00 0.18 0.00 65 1021.0
20190617062504 68 25 3.0 12.0 0.00 0.18 0.00 65 1020.9
20190617062004 68 1 4.0 12.0 0.00 0.18 0.00 65 1020.8
20190617061505 67 355 5.0 12.0 0.00 0.18 0.00 66 1020.8
20190617061004 68 354 4.0 10.0 0.00 0.18 0.00 68 1020.8
20190617060504 67 5 3.0 9.0 0.00 0.18 0.00 69 1020.9
20190617060005 67 358 3.0 10.0 0.00 0.18 0.00 69 1020.8
20190617055504 66 348 4.0 10.0 0.00 0.18 0.00 70 1020.8
20190617055004 66 353 4.0 8.0 0.00 0.18 0.00 72 1020.8
20190617054505 66 347 4.0 10.0 0.00 0.18 0.00 72 1020.8
20190617054005 65 347 2.0 10.0 0.00 0.18 0.00 74 1020.7
20190617053504 65 12 2.0 8.0 0.00 0.18 0.00 77 1020.7
20190617053005 64 6 2.0 8.0 0.00 0.18 0.00 78 1020.7
20190617052504 64 12 2.0 7.0 0.00 0.18 0.00 81 1020.7
20190617052005 64 18 1.0 5.0 0.00 0.18 0.00 83 1020.7
20190617051504 63 21 1.0 5.0 0.00 0.18 0.00 84 1020.7
20190617051004 63 23 1.0 4.0 0.00 0.18 0.00 85 1020.7
20190617050504 63 359 1.0 5.0 0.00 0.18 0.00 85 1020.7
20190617050004 62 346 2.0 5.0 0.00 0.18 0.00 85 1020.7
20190617045504 62 326 2.0 4.0 0.00 0.18 0.00 86 1020.7
20190617045005 62 329 2.0 6.0 0.00 0.18 0.00 86 1020.6
20190617044505 62 343 2.0 6.0 0.00 0.18 0.00 85 1020.5
20190617044004 62 351 1.0 6.0 0.00 0.18 0.00 85 1020.5
20190617043504 62 2 1.0 6.0 0.00 0.18 0.00 85 1020.6
20190617043005 62 5 1.0 6.0 0.00 0.18 0.00 85 1020.5
20190617042505 62 10 1.0 6.0 0.00 0.18 0.00 85 1020.4
20190617042005 62 13 2.0 7.0 0.00 0.18 0.00 85 1020.4
20190617041505 62 10 2.0 7.0 0.00 0.18 0.00 85 1020.4
20190617041005 62 8 1.0 7.0 0.00 0.18 0.00 85 1020.4
20190617040505 62 354 1.0 5.0 0.00 0.18 0.00 85 1020.3
20190617040004 62 350 2.0 6.0 0.00 0.18 0.00 85 1020.3
20190617035505 62 348 1.0 6.0 0.00 0.18 0.00 84 1020.4
20190617035005 62 354 1.0 5.0 0.00 0.18 0.00 84 1020.4
20190617034504 62 1 1.0 3.0 0.00 0.18 0.00 85 1020.3
20190617034005 62 11 1.0 6.0 0.00 0.18 0.00 85 1020.3
20190617033505 62 14 1.0 6.0 0.00 0.18 0.00 85 1020.4
20190617033005 62 21 1.0 4.0 0.00 0.18 0.00 85 1020.3
20190617032504 62 15 1.0 4.0 0.00 0.18 0.00 85 1020.3
20190617032005 62 20 1.0 3.0 0.00 0.18 0.00 85 1020.3
20190617031505 62 32 0.0 3.0 0.00 0.18 0.00 85 1020.3
20190617031005 62 33 0.0 2.0 0.00 0.18 0.00 85 1020.3
20190617030505 62 24 0.0 3.0 0.00 0.18 0.00 85 1020.3
20190617030004 62 19 0.0 3.0 0.00 0.18 0.00 85 1020.3
20190617025505 62 331 0.0 3.0 0.00 0.18 0.00 85 1020.2
20190617025005 62 335 0.0 3.0 0.00 0.18 0.00 85 1020.3
20190617024505 61 346 0.0 1.0 0.00 0.18 0.00 85 1020.1
20190617024005 61 0 0.0 0.0 0.00 0.18 0.00 85 1020.1
20190617023504 62 18 0.0 2.0 0.00 0.18 0.00 85 1019.9
20190617023005 62 16 0.0 2.0 0.00 0.18 0.00 84 1019.8
20190617022505 62 14 0.0 2.0 0.00 0.18 0.00 84 1019.8
20190617022004 62 334 0.0 2.0 0.00 0.18 0.00 84 1019.8
20190617021504 62 349 1.0 2.0 0.00 0.18 0.00 84 1019.8
20190617021005 62 352 1.0 4.0 0.00 0.18 0.00 83 1019.7
20190617020505 62 353 1.0 5.0 0.00 0.18 0.00 83 1019.7
20190617020005 62 1 1.0 5.0 0.00 0.18 0.00 82 1019.6
20190617015504 62 1 2.0 4.0 0.00 0.18 0.00 82 1019.6
20190617015005 62 7 1.0 4.0 0.00 0.18 0.00 82 1019.6
20190617014505 63 12 1.0 4.0 0.00 0.18 0.00 81 1019.5
20190617014005 63 18 1.0 4.0 0.00 0.18 0.00 81 1019.5
20190617013505 63 34 1.0 4.0 0.00 0.18 0.00 81 1019.6
20190617013005 63 42 2.0 6.0 0.00 0.18 0.00 81 1019.4
20190617012505 63 38 2.0 6.0 0.00 0.18 0.00 80 1019.4
20190617012005 63 36 1.0 6.0 0.00 0.18 0.00 80 1019.5
20190617011504 63 32 2.0 9.0 0.00 0.18 0.00 80 1019.5
20190617011005 64 36 3.0 9.0 0.00 0.18 0.00 80 1019.4
20190617010505 64 30 3.0 10.0 0.00 0.18 0.00 80 1019.5
20190617010005 64 19 2.0 10.0 0.00 0.18 0.00 80 1019.5
20190617005505 64 26 2.0 9.0 0.00 0.18 0.00 80 1019.6
20190617005006 64 25 3.0 9.0 0.00 0.18 0.00 79 1019.6
20190617004505 64 20 3.0 7.0 0.00 0.18 0.00 79 1019.5
20190617004005 64 10 2.0 7.0 0.00 0.18 0.00 78 1019.6
20190617003506 64 353 2.0 5.0 0.00 0.18 0.00 78 1019.6
20190617003005 64 353 1.0 6.0 0.00 0.18 0.00 78 1019.6
20190617002505 64 2 2.0 6.0 0.00 0.18 0.00 77 1019.6
20190617002005 64 358 2.0 6.0 0.00 0.18 0.00 77 1019.4
20190617001505 65 347 2.0 7.0 0.00 0.18 0.00 77 1019.5
20190617001005 65 340 2.0 7.0 0.00 0.18 0.00 76 1019.4
20190617000506 65 350 2.0 7.0 0.00 0.18 0.00 76 1019.4
20190617000005 65 356 3.0 8.0 0.00 0.18 0.00 76 1019.4
20190616235505 65 346 3.0 8.0 0.00 0.18 0.00 75 1019.3
20190616235005 65 343 3.0 9.0 0.00 0.18 0.00 75 1019.3
20190616234506 65 347 2.0 9.0 0.00 0.18 0.00 75 1019.3
20190616234005 65 347 2.0 8.0 0.00 0.18 0.00 75 1019.3
20190616233506 65 352 2.0 7.0 0.00 0.18 0.00 74 1019.3
20190616233006 65 354 2.0 7.0 0.00 0.18 0.00 74 1019.4
20190616232505 65 353 3.0 7.0 0.00 0.18 0.00 74 1019.4
20190616232005 65 1 2.0 7.0 0.00 0.18 0.00 74 1019.4
20190616231505 65 356 2.0 7.0 0.00 0.18 0.00 74 1019.4
20190616231006 66 347 1.0 7.0 0.00 0.18 0.00 74 1019.5
20190616230506 66 354 1.0 4.0 0.00 0.18 0.00 74 1019.5
20190616230002 66 349 1.0 5.0 0.00 0.18 0.00 74 1019.4
20190616225501 66 348 2.0 5.0 0.00 0.18 0.00 74 1019.3
20190616225000 66 343 3.0 8.0 0.00 0.18 0.00 74 1019.3
20190616224501 66 342 3.0 8.0 0.00 0.18 0.00 74 1019.2
20190616224001 66 344 3.0 7.0 0.00 0.18 0.00 75 1019.2
20190616223501 66 338 3.0 7.0 0.00 0.18 0.00 76 1019.1
20190616223002 66 333 2.0 6.0 0.00 0.18 0.00 76 1019.0
20190616222501 66 335 2.0 8.0 0.00 0.18 0.00 77 1018.9
20190616222001 66 333 3.0 8.0 0.00 0.18 0.00 77 1018.8
20190616221500 66 334 2.0 6.0 0.00 0.18 0.00 78 1018.8
20190616221001 66 337 2.0 7.0 0.00 0.18 0.00 78 1018.7
20190616220500 66 341 2.0 7.0 0.00 0.18 0.00 78 1018.8
20190616220002 67 332 3.0 10.0 0.00 0.18 0.00 78 1018.9
20190616215501 67 326 3.0 10.0 0.00 0.18 0.18 78 1018.8
20190616215001 67 335 2.0 7.0 0.00 0.18 0.18 77 1018.8
20190616214501 67 335 2.0 8.0 0.00 0.18 0.18 77 1018.8
20190616214002 67 332 3.0 8.0 0.00 0.18 0.18 77 1018.9
20190616213501 67 333 3.0 9.0 0.00 0.18 0.18 77 1018.8
20190616213002 67 331 2.0 9.0 0.00 0.18 0.18 78 1018.8
20190616212501 67 330 2.0 6.0 0.00 0.18 0.18 80 1018.8
20190616212001 67 328 2.0 5.0 0.00 0.18 0.18 80 1018.9
20190616211501 67 321 1.0 4.0 0.00 0.18 0.18 81 1018.9
20190616211002 68 318 1.0 4.0 0.00 0.18 0.18 81 1018.7
20190616210501 68 314 1.0 4.0 0.00 0.18 0.18 81 1018.7
20190616210001 68 315 1.0 5.0 0.00 0.18 0.18 81 1018.7
20190616205502 68 312 2.0 5.0 0.00 0.18 0.18 81 1018.6
20190616205001 69 310 1.0 5.0 0.00 0.18 0.18 82 1018.5
20190616204501 69 318 0.0 3.0 0.00 0.18 0.18 82 1018.6
20190616204001 69 320 1.0 3.0 0.00 0.18 0.18 82 1018.5
20190616203501 69 318 1.0 5.0 0.00 0.18 0.18 82 1018.5
20190616203002 69 317 1.0 5.0 0.00 0.18 0.18 82 1018.3
20190616202501 69 313 0.0 3.0 0.00 0.18 0.18 85 1018.4
20190616202001 69 308 0.0 3.0 0.00 0.18 0.18 88 1018.2
20190616201501 69 286 0.0 1.0 0.00 0.18 0.18 89 1018.2
20190616201029 69 304 0.0 2.0 0.00 0.18 0.18 89 1018.3
20190616200001 69 334 0.0 1.0 0.00 0.18 0.18 89 1018.1
20190616195501 70 0 0.0 0.0 0.00 0.18 0.18 89 1018.0
20190616195002 70 0 0.0 0.0 0.00 0.18 0.18 89 1018.0
20190616194501 70 0 0.0 0.0 0.00 0.18 0.18 89 1018.0
20190616194001 70 0 0.0 0.0 0.00 0.18 0.18 89 1017.9
20190616193502 70 0 0.0 0.0 0.00 0.18 0.18 88 1017.7
20190616193001 70 0 0.0 0.0 0.00 0.18 0.18 88 1017.5
20190616192501 70 0 0.0 0.0 0.00 0.18 0.18 88 1017.3
20190616192002 70 0 0.0 0.0 0.00 0.18 0.18 87 1017.2
20190616191502 71 0 0.0 0.0 0.00 0.18 0.18 87 1017.2
20190616191001 71 0 0.0 0.0 0.00 0.18 0.18 87 1017.1
20190616190501 71 0 0.0 0.0 0.00 0.18 0.18 86 1017.2
20190616190002 71 0 0.0 0.0 0.00 0.18 0.18 86 1017.2
20190616185502 71 0 0.0 0.0 0.00 0.18 0.18 85 1017.2
20190616185001 71 0 0.0 0.0 0.00 0.18 0.18 84 1017.2
20190616184502 71 0 0.0 0.0 0.00 0.18 0.18 84 1017.3
20190616184002 71 0 0.0 0.0 0.00 0.18 0.18 84 1017.2
20190616183501 72 0 0.0 0.0 0.00 0.18 0.18 83 1017.2
20190616183002 72 0 0.0 0.0 0.00 0.18 0.18 83 1017.2
20190616182503 72 0 0.0 0.0 0.00 0.18 0.18 83 1017.2
20190616182002 72 0 0.0 0.0 0.00 0.18 0.18 83 1017.4
20190616181508 72 334 0.0 1.0 0.00 0.18 0.18 81 1017.3
20190616181005 72 334 0.0 1.0 0.00 0.18 0.18 81 1017.2
20190616180501 72 334 0.0 1.0 0.00 0.18 0.18 81 1017.2
20190616180005 73 2 0.0 2.0 0.00 0.18 0.18 80 1017.3
20190616175502 73 337 0.0 2.0 0.00 0.18 0.18 79 1017.3
20190616175008 73 336 0.0 2.0 0.00 0.18 0.18 79 1017.4
20190616174502 74 20 0.0 2.0 0.00 0.18 0.18 79 1017.4
20190616174003 74 29 0.0 3.0 0.00 0.18 0.18 79 1017.4
20190616173508 74 33 0.0 3.0 0.00 0.18 0.18 79 1017.5
20190616173002 74 46 0.0 2.0 0.00 0.18 0.18 79 1017.5
20190616172502 74 71 0.0 3.0 0.00 0.18 0.18 79 1017.6
20190616172002 73 82 0.0 3.0 0.00 0.18 0.18 79 1017.6
20190616171502 73 324 0.0 1.0 0.00 0.18 0.18 80 1017.5
20190616171002 73 324 0.0 2.0 0.00 0.18 0.18 80 1017.6
20190616170502 73 323 0.0 2.0 0.00 0.18 0.18 80 1017.6
20190616170002 73 320 0.0 2.0 0.00 0.18 0.18 79 1017.7
20190616165502 73 324 0.0 2.0 0.00 0.18 0.18 79 1017.7
20190616165002 73 11 0.0 2.0 0.00 0.18 0.18 80 1017.6
20190616164502 73 18 0.0 2.0 0.00 0.18 0.18 79 1017.5
20190616164002 73 357 0.0 2.0 0.00 0.18 0.18 79 1017.3
20190616163502 73 339 0.0 2.0 0.00 0.18 0.18 80 1017.1
20190616163002 73 337 0.0 3.0 0.00 0.18 0.18 80 1017.0
20190616162502 73 49 1.0 4.0 0.00 0.18 0.18 80 1016.8
20190616162002 73 63 3.0 6.0 0.00 0.18 0.18 80 1016.5
20190616161503 73 68 2.0 6.0 0.00 0.18 0.18 80 1016.3
20190616161002 73 61 1.0 5.0 0.00 0.18 0.18 80 1016.3
20190616160503 73 30 1.0 3.0 0.00 0.18 0.18 80 1016.3
20190616160002 73 11 1.0 3.0 0.00 0.18 0.18 80 1016.4
20190616155502 73 15 1.0 5.0 0.00 0.18 0.18 79 1016.5
20190616155002 73 23 1.0 6.0 0.00 0.18 0.18 79 1016.5
20190616154503 74 28 1.0 6.0 0.00 0.18 0.18 79 1016.5
20190616154002 74 29 1.0 5.0 0.00 0.18 0.18 80 1016.5
20190616153503 74 23 2.0 5.0 0.00 0.18 0.18 79 1016.6
20190616153002 74 4 2.0 5.0 0.00 0.18 0.18 79 1016.7
20190616152502 74 339 1.0 4.0 0.00 0.18 0.18 80 1016.8
20190616152003 74 320 2.0 7.0 0.00 0.18 0.18 81 1016.7
20190616151503 74 323 2.0 8.0 0.00 0.18 0.18 81 1016.8
20190616151002 74 320 2.0 8.0 0.00 0.18 0.18 82 1016.8
20190616150503 73 316 3.0 9.0 0.00 0.18 0.18 82 1016.9
20190616150002 73 320 3.0 9.0 0.00 0.18 0.18 81 1016.9
20190616145502 73 322 2.0 6.0 0.00 0.18 0.18 82 1017.0
20190616145002 73 327 3.0 10.0 0.00 0.18 0.18 82 1017.0
20190616144503 73 328 3.0 10.0 0.00 0.18 0.18 82 1016.9
20190616144003 72 327 3.0 8.0 0.00 0.18 0.18 84 1016.6
20190616143503 72 333 3.0 8.0 0.00 0.18 0.18 85 1016.6
20190616143003 72 346 3.0 9.0 0.00 0.18 0.18 86 1016.3
20190616142502 71 355 2.0 9.0 0.00 0.18 0.18 87 1016.3
20190616142003 71 343 3.0 10.0 0.00 0.18 0.18 88 1016.4
20190616141503 71 344 3.0 10.0 0.00 0.18 0.18 87 1016.4
20190616141003 71 350 3.0 10.0 0.00 0.18 0.18 87 1016.5
20190616140503 71 357 4.0 11.0 0.00 0.18 0.18 87 1016.5
20190616140002 71 1 4.0 11.0 0.00 0.18 0.18 87 1016.4
20190616135503 71 357 3.0 8.0 0.00 0.18 0.18 87 1016.4
20190616135003 71 342 3.0 11.0 0.00 0.18 0.18 87 1016.7
20190616134503 71 322 3.0 11.0 0.01 0.18 0.18 88 1017.1
20190616134003 71 319 5.0 12.0 0.01 0.18 0.18 87 1017.1
20190616133502 71 320 6.0 12.0 0.02 0.18 0.18 87 1017.2
20190616133003 72 321 5.0 12.0 0.02 0.18 0.18 87 1017.1
20190616132503 72 316 3.0 11.0 0.06 0.18 0.18 88 1016.8